GBPCK KHFD-BGGH

Flight info

Callsign GBPCK
Flight time 1h 1m
Altitude 41000
Route REVSS DCT TOXAL Q850 ANATI Q812 YBC/N0504F450 N939A YDP/M086F450 N931B URTAK DCT GONEN
Aircraft C750/M-SBDE3FGHRWXY/S

Departure

Time 2026-05-04 14:14
Airport Hartford Brainard Airport (KHFD)

Arrival

Time 2026-05-04 15:15
Airport Nuuk International Airport (BGGH)
Time Latitude Longitude Altitude Speed Heading
2026-05-04 14:01 41.74037 -72.64981 27 ft 0 kts 257°
2026-05-04 14:11 41.74038 -72.64983 24 ft 1 kts 268°
2026-05-04 14:11 41.74058 -72.64999 28 ft 7 kts 348°
2026-05-04 14:12 41.74142 -72.64986 25 ft 17 kts
2026-05-04 14:12 41.74255 -72.64964 25 ft 17 kts
2026-05-04 14:12 41.74340 -72.64745 27 ft 14 kts 136°
2026-05-04 14:13 41.74307 -72.64741 27 ft 0 kts 186°
2026-05-04 14:13 41.74239 -72.64753 27 ft 46 kts 189°
2026-05-04 14:13 41.73581 -72.64897 35 ft 131 kts 190°
2026-05-04 14:13 41.72605 -72.65075 370 ft 157 kts 190°
2026-05-04 14:14 41.71455 -72.65240 774 ft 177 kts 188°
2026-05-04 14:14 41.68955 -72.64675 1839 ft 214 kts 148°
2026-05-04 14:14 41.68210 -72.62806 2261 ft 242 kts 98°
2026-05-04 14:15 41.69894 -72.59179 3838 ft 234 kts 37°
2026-05-04 14:15 41.72434 -72.56206 4904 ft 263 kts 39°
2026-05-04 14:16 41.75377 -72.52649 5934 ft 295 kts 38°
2026-05-04 14:16 41.76929 -72.50804 6889 ft 299 kts 38°
2026-05-04 14:17 41.80083 -72.47023 8828 ft 307 kts 39°
2026-05-04 14:17 41.81670 -72.45123 9769 ft 311 kts 39°
2026-05-04 14:17 41.85058 -72.41075 10534 ft 350 kts 38°
2026-05-04 14:18 41.86950 -72.38807 10620 ft 375 kts 39°
2026-05-04 14:18 41.90820 -72.34132 12029 ft 378 kts 38°
2026-05-04 14:19 41.97701 -72.25849 14309 ft 389 kts 38°
2026-05-04 14:19 42.01761 -72.20947 15495 ft 395 kts 38°
2026-05-04 14:19 42.08274 -72.13063 17548 ft 402 kts 37°
2026-05-04 14:19 42.16727 -72.02797 19957 ft 415 kts 38°
2026-05-04 14:20 42.25346 -71.92292 22205 ft 428 kts 38°
2026-05-04 14:20 42.34871 -71.82448 24090 ft 430 kts 18°
2026-05-04 14:20 42.46422 -71.80065 25852 ft 426 kts 357°
2026-05-04 14:21 42.70907 -71.78179 29667 ft 451 kts 357°
2026-05-04 14:21 42.83693 -71.77173 31288 ft 462 kts 357°
2026-05-04 14:21 42.96334 -71.76173 33415 ft 460 kts 357°
2026-05-04 14:21 43.09166 -71.75153 35176 ft 463 kts 358°
2026-05-04 14:22 43.22072 -71.74121 36869 ft 466 kts 358°
2026-05-04 14:22 43.35124 -71.73073 38504 ft 471 kts 358°
2026-05-04 14:22 43.48110 -71.72026 39870 ft 473 kts 359°
2026-05-04 14:22 43.54892 -71.71479 40624 ft 473 kts 359°
2026-05-04 14:23 43.61536 -71.70945 40831 ft 487 kts 359°
2026-05-04 14:23 43.64946 -71.70670 40834 ft 497 kts 359°
2026-05-04 14:23 43.70934 -71.70178 40854 ft 510 kts 359°
2026-05-04 14:24 43.85371 -71.68999 40825 ft 523 kts 359°
2026-05-04 14:24 44.14512 -71.66604 40817 ft 528 kts 359°
2026-05-04 14:25 44.44175 -71.64142 40795 ft 538 kts 359°
2026-05-04 14:25 44.89007 -71.60374 40792 ft 542 kts
2026-05-04 14:26 45.19144 -71.55666 40755 ft 552 kts 19°
2026-05-04 14:26 45.46660 -71.36358 40769 ft 555 kts 24°
2026-05-04 14:27 45.74451 -71.17549 40771 ft 555 kts 24°
2026-05-04 14:27 46.02373 -70.98343 40775 ft 554 kts 24°
2026-05-04 14:28 46.29854 -70.77937 40767 ft 554 kts 26°
2026-05-04 14:28 46.56858 -70.56445 40766 ft 554 kts 27°
2026-05-04 14:29 47.10666 -70.12883 40747 ft 553 kts 28°
2026-05-04 14:30 47.37644 -69.90647 40742 ft 553 kts 28°
2026-05-04 14:31 47.77820 -69.56930 40742 ft 554 kts 31°
2026-05-04 14:32 48.29449 -69.06546 40726 ft 553 kts 33°
2026-05-04 14:32 48.55097 -68.81137 40695 ft 553 kts 33°
2026-05-04 14:33 48.80790 -68.55365 40664 ft 552 kts 33°
2026-05-04 14:33 49.06307 -68.29446 40621 ft 554 kts 34°
2026-05-04 14:33 49.19543 -68.17473 40619 ft 553 kts 23°
2026-05-04 14:34 49.33487 -68.07338 40615 ft 553 kts 25°
2026-05-04 14:34 49.61152 -67.86971 40591 ft 555 kts 26°
2026-05-04 14:35 49.88972 -67.66142 40580 ft 553 kts 26°
2026-05-04 14:35 50.16474 -67.45260 40596 ft 552 kts 26°
2026-05-04 14:36 50.44157 -67.23964 40587 ft 551 kts 27°
2026-05-04 14:36 50.71566 -67.02602 40570 ft 552 kts 27°
2026-05-04 14:37 50.99052 -66.80900 40571 ft 550 kts 28°
2026-05-04 14:37 51.26473 -66.58957 40574 ft 550 kts 28°
2026-05-04 14:38 51.53623 -66.36940 40572 ft 549 kts 28°
2026-05-04 14:38 51.80729 -66.14661 40576 ft 548 kts 28°
2026-05-04 14:39 52.07921 -65.92003 40572 ft 550 kts 29°
2026-05-04 14:39 52.35052 -65.69082 40593 ft 551 kts 29°
2026-05-04 14:40 52.75994 -65.33883 40598 ft 553 kts 30°
2026-05-04 14:40 53.03251 -65.10028 40609 ft 552 kts 30°
2026-05-04 14:41 53.30119 -64.86176 40616 ft 550 kts 31°
2026-05-04 14:42 53.83824 -64.37453 40597 ft 547 kts 31°
2026-05-04 14:42 54.10647 -64.12578 40611 ft 547 kts 31°
2026-05-04 14:43 54.32895 -63.91664 40617 ft 548 kts 32°
2026-05-04 14:43 54.63907 -63.62071 40628 ft 548 kts 32°
2026-05-04 14:44 54.86092 -63.40580 40634 ft 548 kts 32°
2026-05-04 14:44 55.12735 -63.14405 40645 ft 548 kts 32°
2026-05-04 14:45 55.39204 -62.87998 40674 ft 549 kts 32°
2026-05-04 14:45 55.65621 -62.61228 40693 ft 549 kts 32°
2026-05-04 14:46 55.92146 -62.33923 40705 ft 548 kts 33°
2026-05-04 14:46 56.18337 -62.06529 40722 ft 549 kts 33°
2026-05-04 14:47 56.44611 -61.78603 40755 ft 549 kts 33°
2026-05-04 14:47 56.57213 -61.63047 40752 ft 543 kts 47°
2026-05-04 14:47 56.67855 -61.43536 40752 ft 545 kts 45°
2026-05-04 14:48 56.89321 -61.04857 40744 ft 544 kts 47°
2026-05-04 14:48 57.10840 -60.65523 40749 ft 545 kts 48°
2026-05-04 14:49 57.32263 -60.25653 40741 ft 545 kts 49°
2026-05-04 14:49 57.53360 -59.85685 40759 ft 546 kts 49°
2026-05-04 14:50 57.74598 -59.44727 40750 ft 546 kts 49°
2026-05-04 14:50 57.95495 -59.03697 40757 ft 546 kts 49°
2026-05-04 14:51 58.16405 -58.61893 40764 ft 547 kts 50°
2026-05-04 14:51 58.37109 -58.19736 40771 ft 546 kts 50°
2026-05-04 14:52 58.47769 -57.99007 40765 ft 550 kts 39°
2026-05-04 14:52 58.61634 -57.86246 40801 ft 555 kts 24°
2026-05-04 14:52 58.89199 -57.60043 40814 ft 554 kts 27°
2026-05-04 14:53 59.16727 -57.33738 40835 ft 553 kts 28°
2026-05-04 14:53 59.44354 -57.06799 40860 ft 551 kts 28°
2026-05-04 14:54 59.71659 -56.79658 40890 ft 552 kts 28°
2026-05-04 14:54 59.99109 -56.51862 40897 ft 551 kts 28°
2026-05-04 14:55 60.26339 -56.23769 40918 ft 554 kts 28°
2026-05-04 14:55 60.53792 -55.94906 40929 ft 554 kts 28°
2026-05-04 14:56 60.81162 -55.65569 40945 ft 556 kts 28°
2026-05-04 14:56 61.08414 -55.35786 40951 ft 558 kts 28°
2026-05-04 14:57 61.35864 -55.05190 40976 ft 560 kts 28°
2026-05-04 14:57 61.63297 -54.73991 40982 ft 560 kts 28°
2026-05-04 14:58 61.90501 -54.42420 41011 ft 560 kts 27°
2026-05-04 14:58 62.17826 -54.10047 41020 ft 560 kts 27°
2026-05-04 14:59 62.28679 -53.96998 40833 ft 552 kts 27°
2026-05-04 14:59 62.35250 -53.89048 39211 ft 540 kts 26°
2026-05-04 14:59 62.47874 -53.73655 36419 ft 503 kts 25°
2026-05-04 15:00 62.53909 -53.66244 35119 ft 493 kts 24°
2026-05-04 15:00 62.59870 -53.58894 33787 ft 489 kts 24°
2026-05-04 15:00 62.65735 -53.51630 32506 ft 490 kts 24°
2026-05-04 15:01 62.77772 -53.36602 29840 ft 501 kts 26°
2026-05-04 15:01 62.83714 -53.29124 28532 ft 487 kts 26°
2026-05-04 15:01 62.89485 -53.21845 27265 ft 481 kts 26°
2026-05-04 15:01 62.95225 -53.14554 26016 ft 471 kts 26°
2026-05-04 15:02 63.00896 -53.07333 24786 ft 464 kts 26°
2026-05-04 15:02 63.06441 -53.00230 23556 ft 457 kts 26°
2026-05-04 15:02 63.11812 -52.93323 22343 ft 445 kts 27°
2026-05-04 15:02 63.17109 -52.86484 21180 ft 434 kts 27°
2026-05-04 15:03 63.22266 -52.79796 20044 ft 423 kts 28°
2026-05-04 15:03 63.27296 -52.73247 18934 ft 412 kts 28°
2026-05-04 15:03 63.32155 -52.66892 17672 ft 402 kts 28°
2026-05-04 15:03 63.36891 -52.60677 16722 ft 396 kts 29°
2026-05-04 15:04 63.41554 -52.54530 15454 ft 375 kts 29°
2026-05-04 15:04 63.46118 -52.48503 12751 ft 378 kts 30°
2026-05-04 15:04 63.50531 -52.42635 11401 ft 355 kts 31°
2026-05-04 15:04 63.54451 -52.37407 11301 ft 309 kts 31°
2026-05-04 15:05 63.58118 -52.32513 10477 ft 306 kts 31°
2026-05-04 15:05 63.61734 -52.27667 9903 ft 299 kts 31°
2026-05-04 15:05 63.65259 -52.22932 9181 ft 296 kts 31°
2026-05-04 15:05 63.68774 -52.18192 8487 ft 292 kts 31°
2026-05-04 15:06 63.72254 -52.13487 7781 ft 289 kts 32°
2026-05-04 15:06 63.74995 -52.09771 7078 ft 286 kts 32°
2026-05-04 15:06 63.76677 -52.07487 6667 ft 284 kts 32°
2026-05-04 15:07 63.79942 -52.03044 6305 ft 251 kts 32°
2026-05-04 15:07 63.81400 -52.01053 5862 ft 247 kts 33°
2026-05-04 15:07 63.82873 -51.99040 5388 ft 245 kts 33°
2026-05-04 15:07 63.84307 -51.97082 4941 ft 242 kts 33°
2026-05-04 15:08 63.85740 -51.95121 4425 ft 241 kts 33°
2026-05-04 15:08 63.87183 -51.93143 3956 ft 239 kts 33°
2026-05-04 15:08 63.88517 -51.91321 3804 ft 212 kts 34°
2026-05-04 15:08 63.89718 -51.89672 3684 ft 195 kts 34°
2026-05-04 15:09 63.90987 -51.88541 3121 ft 206 kts 17°
2026-05-04 15:09 63.92332 -51.87663 2995 ft 189 kts 20°
2026-05-04 15:09 63.93558 -51.86759 2995 ft 183 kts 20°
2026-05-04 15:10 63.96046 -51.84920 3002 ft 193 kts 21°
2026-05-04 15:10 63.97301 -51.84001 3011 ft 190 kts 20°
2026-05-04 15:10 63.99843 -51.82137 3013 ft 195 kts 20°
2026-05-04 15:11 64.01138 -51.81202 3011 ft 198 kts 20°
2026-05-04 15:11 64.02456 -51.80231 3008 ft 199 kts 20°
2026-05-04 15:11 64.03773 -51.79256 3008 ft 197 kts 20°
2026-05-04 15:11 64.05017 -51.78355 2984 ft 174 kts 20°
2026-05-04 15:12 64.06159 -51.77510 2860 ft 179 kts 21°
2026-05-04 15:12 64.07365 -51.76613 2605 ft 183 kts 21°
2026-05-04 15:12 64.08576 -51.75732 2358 ft 182 kts 20°
2026-05-04 15:12 64.09769 -51.74849 2110 ft 181 kts 20°
2026-05-04 15:13 64.10964 -51.73963 1858 ft 179 kts 20°
2026-05-04 15:13 64.12146 -51.73093 1611 ft 177 kts 20°
2026-05-04 15:13 64.13307 -51.72240 1363 ft 169 kts 20°
2026-05-04 15:13 64.14346 -51.71471 1121 ft 147 kts 19°
2026-05-04 15:14 64.15250 -51.70801 909 ft 128 kts 19°
2026-05-04 15:14 64.16061 -51.70198 736 ft 118 kts 18°
2026-05-04 15:14 64.16824 -51.69583 581 ft 115 kts 18°
2026-05-04 15:14 64.17596 -51.69027 423 ft 117 kts 17°
2026-05-04 15:15 64.18368 -51.68469 296 ft 115 kts 16°
2026-05-04 15:15 64.19050 -51.67977 280 ft 84 kts 18°
2026-05-04 15:15 64.19428 -51.67685 277 ft 44 kts 19°
2026-05-04 15:16 64.19898 -51.67346 278 ft 25 kts 11°
2026-05-04 15:16 64.19999 -51.67323 278 ft 9 kts 66°
2026-05-04 15:16 64.19906 -51.67339 277 ft 9 kts 195°
2026-05-04 15:17 64.19874 -51.67360 278 ft 0 kts 198°
2026-05-04 15:17 64.19762 -51.67436 280 ft 33 kts 197°
2026-05-04 15:17 64.19486 -51.67621 278 ft 47 kts 197°
2026-05-04 15:18 64.19184 -51.67837 278 ft 44 kts 196°
2026-05-04 15:18 64.19089 -51.67819 278 ft 9 kts 86°
2026-05-04 15:18 64.19076 -51.67667 278 ft 12 kts 106°
2026-05-04 15:19 64.19130 -51.67421 278 ft 4 kts 352°
2026-05-04 15:19 64.19132 -51.67438 278 ft 0 kts 263°